Time,TemperatureF,DewpointF,PressureIn,WindDirection,WindDirectionDegrees,WindSpeedMPH,WindSpeedGustMPH,Humidity,HourlyPrecipIn,Conditions,Clouds,dailyrainin,SoftwareType,DateUTC
2013-01-06 14:22:00,22.0,12.0,30.23,SW,227,0.0,2.0,65,0.00,,,0.00,,2013-01-06 21:22:00,
2013-01-06 14:33:00,22.0,13.0,30.23,SW,227,0.0,4.0,67,0.00,,,0.00,,2013-01-06 21:33:00,
2013-01-06 14:42:00,22.0,13.0,30.23,SW,227,0.0,4.0,67,0.00,,,0.00,,2013-01-06 21:42:00,
2013-01-06 14:52:00,22.0,13.0,30.23,SW,227,0.0,1.0,67,0.00,,,0.00,,2013-01-06 21:52:00,
2013-01-06 15:02:00,22.0,13.0,30.23,SW,227,0.0,1.0,67,0.00,,,0.00,,2013-01-06 22:02:00,
2013-01-06 15:12:00,22.0,13.0,30.23,SW,227,0.0,1.0,67,0.00,,,0.00,,2013-01-06 22:12:00,
2013-01-06 15:22:00,23.0,13.0,30.22,SW,227,0.0,1.0,64,0.00,,,0.00,,2013-01-06 22:22:00,
2013-01-06 15:32:00,23.0,13.0,30.23,SW,227,0.0,0.0,64,0.00,,,0.00,,2013-01-06 22:32:00,
2013-01-06 15:43:00,23.0,13.0,30.23,SW,227,0.0,0.0,64,0.00,,,0.00,,2013-01-06 22:43:00,
2013-01-06 15:52:00,24.0,13.0,30.23,SW,227,0.0,2.0,63,0.00,,,0.00,,2013-01-06 22:52:00,
2013-01-06 16:02:00,24.0,14.0,30.23,SW,227,0.0,0.0,64,0.00,,,0.00,,2013-01-06 23:02:00,
2013-01-06 16:12:00,24.0,14.0,30.23,SW,227,0.0,0.0,64,0.00,,,0.00,,2013-01-06 23:12:00,
2013-01-06 16:22:00,25.0,14.0,30.22,SW,227,0.0,0.0,62,0.00,,,0.00,,2013-01-06 23:22:00,
2013-01-06 16:32:00,25.0,14.0,30.22,SW,227,0.0,0.0,62,0.00,,,0.00,,2013-01-06 23:32:00,
2013-01-06 16:42:00,25.0,14.0,30.22,SW,227,0.0,0.0,62,0.00,,,0.00,,2013-01-06 23:42:00,
2013-01-06 16:52:00,25.0,13.0,30.22,SW,227,0.0,1.0,61,0.00,,,0.00,,2013-01-06 23:52:00,
2013-01-06 17:02:00,24.0,13.0,30.22,SW,227,0.0,3.0,62,0.00,,,0.00,,2013-01-07 00:02:00,
2013-01-06 17:12:00,24.0,13.0,30.22,SW,227,0.0,3.0,62,0.00,,,0.00,,2013-01-07 00:12:00,
2013-01-06 17:22:00,23.0,13.0,30.22,SW,227,0.0,3.0,65,0.00,,,0.00,,2013-01-07 00:22:00,
2013-01-06 17:32:00,22.0,13.0,30.22,SW,227,0.0,2.0,67,0.00,,,0.00,,2013-01-07 00:32:00,
2013-01-06 17:42:00,22.0,13.0,30.22,SW,227,0.0,2.0,67,0.00,,,0.00,,2013-01-07 00:42:00,
2013-01-06 17:52:00,22.0,13.0,30.22,SW,227,0.0,0.0,67,0.00,,,0.00,,2013-01-07 00:52:00,
2013-01-06 18:02:00,21.0,12.0,30.22,SW,227,0.0,1.0,69,0.00,,,0.00,,2013-01-07 01:02:00,
2013-01-06 18:12:00,21.0,12.0,30.22,SW,227,0.0,1.0,69,0.00,,,0.00,,2013-01-07 01:12:00,
2013-01-06 18:22:00,21.0,12.0,30.22,SW,227,0.0,3.0,69,0.00,,,0.00,,2013-01-07 01:22:00,
2013-01-06 18:32:00,21.0,13.0,30.22,SW,227,0.0,2.0,70,0.00,,,0.00,,2013-01-07 01:32:00,
2013-01-06 18:42:00,21.0,13.0,30.22,SW,227,0.0,2.0,70,0.00,,,0.00,,2013-01-07 01:42:00,
2013-01-06 18:52:00,21.0,13.0,30.22,SW,227,0.0,1.0,70,0.00,,,0.00,,2013-01-07 01:52:00,
2013-01-06 19:02:00,21.0,13.0,30.22,SW,227,0.0,0.0,72,0.00,,,0.00,,2013-01-07 02:02:00,
2013-01-06 19:11:00,21.0,13.0,30.22,SW,227,0.0,0.0,72,0.00,,,0.00,,2013-01-07 02:11:00,
2013-01-06 19:22:00,21.0,13.0,30.22,SW,227,0.0,1.0,72,0.00,,,0.00,,2013-01-07 02:22:00,
2013-01-06 19:32:00,20.0,13.0,30.22,SW,227,0.0,0.0,74,0.00,,,0.00,,2013-01-07 02:32:00,
2013-01-06 19:42:00,20.0,13.0,30.22,SW,227,0.0,0.0,74,0.00,,,0.00,,2013-01-07 02:42:00,
2013-01-06 19:52:00,20.0,13.0,30.23,SW,227,0.0,1.0,75,0.00,,,0.00,,2013-01-07 02:52:00,
2013-01-06 20:02:00,20.0,13.0,30.22,SW,227,0.0,0.0,75,0.00,,,0.00,,2013-01-07 03:02:00,
2013-01-06 20:11:00,20.0,13.0,30.22,SW,227,0.0,0.0,75,0.00,,,0.00,,2013-01-07 03:11:00,
2013-01-06 20:22:00,19.0,13.0,30.21,SW,227,0.0,2.0,76,0.00,,,0.00,,2013-01-07 03:22:00,
2013-01-06 20:32:00,19.0,13.0,30.22,SW,227,0.0,1.0,76,0.00,,,0.00,,2013-01-07 03:32:00,
2013-01-06 20:42:00,19.0,13.0,30.22,SW,227,0.0,1.0,76,0.00,,,0.00,,2013-01-07 03:42:00,
2013-01-06 20:52:00,18.0,12.0,30.22,SW,227,0.0,3.0,76,0.00,,,0.00,,2013-01-07 03:52:00,
2013-01-06 21:02:00,17.0,12.0,30.23,SW,227,0.0,0.0,79,0.00,,,0.00,,2013-01-07 04:02:00,
2013-01-06 21:12:00,17.0,12.0,30.23,SW,227,0.0,0.0,79,0.00,,,0.00,,2013-01-07 04:12:00,
2013-01-06 21:22:00,16.0,11.0,30.23,SW,227,0.0,0.0,79,0.00,,,0.00,,2013-01-07 04:22:00,
2013-01-06 21:32:00,17.0,12.0,30.22,SW,227,0.0,1.0,80,0.00,,,0.00,,2013-01-07 04:32:00,
2013-01-06 21:42:00,17.0,12.0,30.22,SW,227,0.0,1.0,80,0.00,,,0.00,,2013-01-07 04:42:00,
2013-01-06 21:52:00,16.0,11.0,30.22,SW,227,0.0,3.0,79,0.00,,,0.00,,2013-01-07 04:52:00,
2013-01-06 22:02:00,15.0,10.0,30.23,SW,227,1.0,5.0,81,0.00,,,0.00,,2013-01-07 05:02:00,
2013-01-06 22:12:00,15.0,10.0,30.23,SW,227,1.0,5.0,81,0.00,,,0.00,,2013-01-07 05:12:00,
2013-01-06 22:22:00,15.0,10.0,30.23,SW,227,2.0,7.0,80,0.00,,,0.00,,2013-01-07 05:22:00,
2013-01-06 22:32:00,14.0,9.0,30.22,SW,227,0.0,4.0,80,0.00,,,0.00,,2013-01-07 05:32:00,
2013-01-06 22:42:00,14.0,9.0,30.22,SW,227,0.0,4.0,80,0.00,,,0.00,,2013-01-07 05:42:00,
2013-01-06 22:52:00,14.0,9.0,30.22,SW,227,0.0,1.0,81,0.00,,,0.00,,2013-01-07 05:52:00,
2013-01-06 23:02:00,13.0,9.0,30.22,SW,227,1.0,2.0,82,0.00,,,0.00,,2013-01-07 06:02:00,
2013-01-06 23:12:00,13.0,9.0,30.22,SW,227,1.0,2.0,82,0.00,,,0.00,,2013-01-07 06:12:00,
2013-01-06 23:22:00,13.0,9.0,30.23,SW,227,0.0,4.0,82,0.00,,,0.00,,2013-01-07 06:22:00,
2013-01-06 23:32:00,12.0,8.0,30.23,SW,227,2.0,5.0,82,0.00,,,0.00,,2013-01-07 06:32:00,
2013-01-06 23:42:00,12.0,8.0,30.23,SW,227,2.0,5.0,82,0.00,,,0.00,,2013-01-07 06:42:00,
2013-01-06 23:52:00,11.0,7.0,30.22,SW,227,1.0,7.0,82,0.00,,,0.00,,2013-01-07 06:52:00,